[[{"header":{"parameterUnit":"m.s-1","parameterCategory":2,"la1":30.2991,"la2":30.254,"lo1":-89.0895,"lo2":-89.0444,"dy":0.0017,"dx":0.0017,"nx":28,"ny":28,"refTime":"2024-07-11T03:00:00:Z","depth":"0","parameterNumber":2,"parameterNumberName":"U-component_of_CURRENTS"},"data":[0,0,0,0,0,0,0,0,0,0,0,0,0,0,0,0,0,0,0,0,0,0,0,0,0,0,0,0,0,0,0,0,0,0,0,0,0,0,0,0,0,0,0,0,0,0,0,0,0,0,0,0,0,0,0,0,0,0,-0.1857,-0.1857,0,-0.181,-0.1809,-0.1809,-0.1748,-0.1747,-0.1746,-0.1746,-0.1715,-0.1715,-0.1715,0,0,0,0,0,0,0,0,0,0,0,0,0,-0.1909,-0.1908,-0.1857,-0.1857,-0.1856,-0.181,-0.1809,-0.1809,-0.1748,-0.1747,-0.1746,-0.1745,-0.1715,-0.1715,-0.1715,0,0,0,0,0,0,0,0,0,0,0,0,0,-0.1876,-0.1908,-0.1857,-0.1821,-0.1817,-0.181,-0.1809,-0.1808,-0.1749,-0.1747,-0.1746,-0.1745,-0.1715,-0.1715,-0.1715,-0.1744,0,0,-0.1716,-0.1716,0,0,0,0,0,0,0,0,-0.1878,-0.1874,-0.1827,-0.1823,-0.1819,-0.1784,-0.1816,-0.1788,-0.1749,-0.1774,-0.1745,-0.1744,-0.1741,-0.1739,-0.1732,-0.1743,-0.1741,-0.1716,-0.1716,-0.1716,-0.1716,0,0,0,0,0,0,0,-0.188,-0.1876,-0.1838,-0.1826,-0.1822,-0.1811,-0.1805,-0.1811,-0.1766,-0.1772,-0.1768,-0.1763,-0.1739,-0.1732,-0.1731,-0.1741,-0.1716,-0.1716,-0.1716,-0.1716,-0.1761,-0.1762,0,0,0,0,0,0,-0.1888,-0.1878,-0.184,-0.1837,-0.1846,-0.1812,-0.1804,-0.1796,-0.1766,-0.176,-0.1765,-0.1761,-0.1733,-0.1731,-0.173,-0.176,-0.1716,-0.1716,-0.1716,-0.176,-0.1762,-0.1763,0,0,0,0,0,0,-0.1889,-0.1885,-0.1842,-0.1857,-0.1851,-0.1812,-0.1804,-0.1796,-0.179,-0.176,-0.1754,-0.1766,-0.1732,-0.173,-0.1741,-0.1759,-0.1716,-0.1716,-0.1759,-0.1761,-0.1762,-0.1823,0,0,0,0,0,0,-0.1891,-0.1885,-0.189,-0.1857,-0.185,-0.1849,-0.1805,-0.1796,-0.179,-0.1784,-0.176,-0.1755,-0.173,-0.1741,-0.1741,-0.1758,-0.1716,-0.1757,-0.176,-0.1762,-0.1819,-0.1827,-0.1833,0,0,0,0,0,-0.1893,-0.1918,-0.1891,-0.1887,-0.1855,-0.185,-0.1846,-0.1813,-0.1792,-0.1801,-0.1781,-0.1756,-0.1754,-0.1743,-0.1742,-0.176,-0.1756,-0.1759,-0.1762,-0.1817,-0.1825,-0.1832,0,0,0,0,0,0,-0.1966,-0.1913,-0.1883,-0.1895,-0.1873,-0.184,-0.1852,-0.1825,-0.1816,-0.1812,-0.1777,-0.1772,-0.1786,-0.1771,-0.1759,-0.1779,-0.175,-0.1752,-0.1792,-0.1799,-0.1806,-0.181,-0.1716,0,0,0,0,0,-0.1978,-0.1968,-0.1925,-0.1938,-0.1929,-0.189,-0.1886,-0.186,-0.1844,-0.1837,-0.1819,-0.1804,-0.1799,-0.1797,-0.1792,-0.1812,-0.1793,-0.1821,-0.1827,-0.1833,-0.1837,-0.1821,-0.1826,-0.1771,-0.1771,-0.1771,0,0,-0.2012,-0.1982,-0.1979,-0.195,-0.1931,-0.1931,-0.1885,-0.1886,-0.1886,-0.1839,-0.1851,-0.1832,-0.181,-0.1823,-0.1828,-0.1812,-0.1842,-0.1836,-0.1841,-0.1842,-0.1824,-0.1829,-0.1834,-0.1773,-0.1773,-0.1773,0,0,-0.2075,-0.2046,-0.2054,-0.2035,-0.2004,-0.1979,-0.1982,-0.195,-0.1936,-0.1944,-0.1905,-0.1899,-0.1898,-0.1878,-0.1869,-0.1914,-0.1879,-0.1912,-0.1948,-0.1933,-0.1937,-0.194,-0.1937,-0.1939,-0.1914,-0.1914,-0.1914,0,-0.2124,-0.2111,-0.2063,-0.2066,-0.2057,-0.2004,-0.2017,-0.2003,-0.198,-0.1973,-0.1958,-0.194,-0.1924,-0.1923,-0.1934,-0.1929,-0.1916,-0.1918,-0.1941,-0.1943,-0.1946,-0.1941,-0.1943,-0.1917,-0.1917,-0.1916,-0.1916,0,-0.2174,-0.2168,-0.2181,-0.2149,-0.214,-0.2149,-0.2109,-0.2107,-0.2084,-0.2057,-0.2054,-0.2026,-0.2009,-0.2005,-0.1984,-0.1991,-0.1977,-0.1951,-0.1919,-0.1955,-0.1948,-0.1949,-0.1922,-0.1921,-0.192,-0.1919,0,0,-0.2286,-0.2224,-0.2231,-0.2214,-0.218,-0.2178,-0.2186,-0.2168,-0.2162,-0.2144,-0.2139,-0.2128,-0.2094,-0.2083,-0.2049,-0.2035,-0.2047,-0.2005,-0.2003,-0.1999,-0.2022,-0.203,-0.2031,-0.2021,-0.2021,-0.2021,-0.2015,0,-0.2343,-0.2348,-0.2304,-0.2321,-0.232,-0.2269,-0.2274,-0.225,-0.2222,-0.2207,-0.217,-0.2154,-0.2128,-0.2113,-0.21,-0.2049,-0.2049,-0.2051,-0.199,-0.1988,-0.1988,-0.2033,-0.2072,-0.2071,-0.2016,-0.2016,-0.2016,0,-0.2411,-0.2396,-0.2414,-0.2372,-0.2369,-0.2376,-0.2354,-0.2346,-0.2306,-0.2283,-0.2257,-0.2213,-0.219,-0.216,-0.2112,-0.2112,-0.2084,-0.2049,-0.2047,-0.2032,-0.1998,-0.2024,-0.2074,-0.2076,-0.2017,-0.2017,-0.2017,0,-0.2498,-0.2478,-0.2487,-0.2477,-0.2431,-0.2437,-0.2417,-0.2379,-0.2362,-0.2326,-0.2306,-0.2266,-0.2239,-0.2198,-0.213,-0.212,-0.2072,-0.2047,-0.2035,-0.2035,-0.2046,-0.2047,-0.2088,-0.2034,-0.2034,-0.2034,-0.2034,0,-0.2574,-0.2586,-0.2527,-0.2535,-0.2547,-0.2495,-0.2499,-0.2473,-0.2427,-0.2403,-0.2349,-0.2323,-0.2245,-0.2198,-0.2148,-0.2097,-0.2091,-0.2055,-0.2038,-0.207,-0.2073,-0.2055,-0.2042,-0.2034,-0.2034,-0.2034,-0.2034,0,-0.2674,-0.2633,-0.2641,-0.2599,-0.2587,-0.2599,-0.2546,-0.2529,-0.249,-0.2457,-0.2446,-0.2369,-0.2306,-0.2231,-0.2154,-0.2121,-0.205,-0.2056,-0.2106,-0.2095,-0.2089,-0.2077,-0.1951,-0.1959,-0.2049,-0.2049,-0.2049,0,-0.2728,-0.2738,-0.2699,-0.2689,-0.2673,-0.2663,-0.2637,-0.258,-0.2547,-0.2481,-0.2463,-0.2399,-0.2351,-0.225,-0.2184,-0.2117,-0.2055,-0.2106,-0.21,-0.2112,-0.2085,-0.1957,-0.1964,-0.2142,-0.2143,-0.2144,-0.2145,0,-0.2821,-0.2802,-0.2787,-0.2766,-0.2744,-0.2708,-0.2667,-0.2652,-0.2572,-0.2546,-0.2489,-0.2453,-0.2369,-0.2314,-0.223,-0.218,-0.2086,-0.212,-0.2117,-0.2159,-0.2035,-0.2029,-0.2127,-0.2151,-0.2151,-0.215,-0.215,-0.215,-0.288,-0.288,-0.2839,-0.281,-0.2788,-0.2732,-0.2685,-0.2655,-0.2612,-0.255,-0.252,-0.2489,-0.243,-0.2323,-0.2281,-0.2236,-0.2127,-0.2185,-0.2169,-0.2036,-0.2046,-0.2168,-0.2177,-0.2177,-0.2176,-0.2176,-0.2176,0,-0.2913,-0.288,-0.2866,-0.2818,-0.2783,-0.2748,-0.267,-0.2603,-0.2557,-0.2573,-0.2534,-0.2547,-0.2499,-0.2453,-0.2394,-0.2312,-0.2227,-0.2236,-0.2099,-0.2109,-0.2229,-0.2242,-0.2285,-0.2285,-0.2285,-0.2285,-0.2285,-0.2285,-0.2919,-0.2885,-0.2844,-0.2783,-0.2749,-0.2626,-0.255,-0.2491,-0.2469,-0.2463,-0.2525,-0.2579,-0.2476,-0.2506,-0.244,-0.2364,-0.2243,-0.2124,-0.2097,-0.2241,-0.2235,-0.223,-0.2241,-0.2283,-0.2283,-0.1962,-0.196,-0.1959]},{"header":{"parameterUnit":"m.s-1","parameterCategory":2,"la1":30.2991,"la2":30.254,"lo1":-89.0895,"lo2":-89.0444,"dy":0.0017,"dx":0.0017,"nx":28,"ny":28,"refTime":"2024-07-11T03:00:00:Z","depth":"0","parameterNumber":3,"parameterNumberName":"V-component_of_CURRENTS"},"data":[0,0,0,0,0,0,0,0,0,0,0,0,0,0,0,0,0,0,0,0,0,0,0,0,0,0,0,0,0,0,0,0,0,0,0,0,0,0,0,0,0,0,0,0,0,0,0,0,0,0,0,0,0,0,0,0,0,0,-0.0205,-0.0205,0,-0.022,-0.022,-0.022,-0.0243,-0.0244,-0.0244,-0.0245,-0.0302,-0.0303,-0.0304,0,0,0,0,0,0,0,0,0,0,0,0,0,-0.0215,-0.0214,-0.0205,-0.0205,-0.0205,-0.022,-0.022,-0.022,-0.0243,-0.0244,-0.0244,-0.0245,-0.0301,-0.0302,-0.0304,0,0,0,0,0,0,0,0,0,0,0,0,0,-0.0217,-0.0214,-0.0205,-0.0219,-0.022,-0.022,-0.022,-0.022,-0.0243,-0.0244,-0.0245,-0.0245,-0.0301,-0.0302,-0.0304,-0.03,0,0,-0.0309,-0.0309,0,0,0,0,0,0,0,0,-0.0217,-0.0217,-0.0217,-0.0218,-0.022,-0.0231,-0.0244,-0.0249,-0.0243,-0.0234,-0.0245,-0.0246,-0.0282,-0.0285,-0.0285,-0.0302,-0.0305,-0.0309,-0.031,-0.0311,-0.0311,0,0,0,0,0,0,0,-0.0217,-0.0217,-0.021,-0.0217,-0.0219,-0.0231,-0.0232,-0.0245,-0.0254,-0.0235,-0.0237,-0.0239,-0.0283,-0.0283,-0.0286,-0.0306,-0.0309,-0.031,-0.0311,-0.0312,-0.0357,-0.0357,0,0,0,0,0,0,-0.0214,-0.0216,-0.021,-0.0211,-0.0221,-0.023,-0.0231,-0.0226,-0.0253,-0.0258,-0.0238,-0.024,-0.028,-0.0284,-0.0288,-0.0303,-0.0311,-0.0312,-0.0313,-0.0357,-0.0357,-0.0357,0,0,0,0,0,0,-0.0214,-0.0213,-0.0209,-0.0215,-0.0215,-0.0229,-0.0223,-0.0226,-0.0227,-0.0255,-0.0261,-0.0237,-0.0281,-0.0286,-0.0301,-0.0305,-0.0313,-0.0314,-0.0356,-0.0357,-0.0357,-0.0321,0,0,0,0,0,0,-0.0214,-0.0213,-0.0208,-0.0214,-0.0215,-0.0203,-0.0223,-0.0226,-0.0228,-0.023,-0.0256,-0.0262,-0.0282,-0.0298,-0.0302,-0.0308,-0.0316,-0.0356,-0.0357,-0.0357,-0.0322,-0.0321,-0.0319,0,0,0,0,0,-0.0215,-0.0197,-0.0207,-0.0207,-0.0207,-0.0203,-0.0203,-0.0216,-0.0227,-0.0221,-0.0243,-0.0261,-0.0305,-0.0299,-0.0304,-0.031,-0.0356,-0.0356,-0.0357,-0.0323,-0.0321,-0.0319,0,0,0,0,0,0,-0.019,-0.0198,-0.021,-0.0193,-0.0199,-0.0207,-0.0201,-0.0212,-0.0223,-0.0227,-0.0257,-0.0264,-0.0281,-0.0299,-0.0292,-0.0326,-0.0336,-0.0338,-0.0309,-0.0307,-0.0305,-0.0299,-0.0317,0,0,0,0,0,-0.0185,-0.0178,-0.0188,-0.0176,-0.0177,-0.019,-0.0191,-0.0198,-0.0209,-0.0215,-0.0235,-0.0261,-0.0286,-0.0298,-0.0318,-0.0329,-0.0347,-0.034,-0.0338,-0.0336,-0.0336,-0.0366,-0.0367,-0.0359,-0.0359,-0.0359,0,0,-0.0172,-0.0176,-0.0171,-0.0171,-0.0177,-0.0176,-0.0191,-0.0186,-0.019,-0.0219,-0.0229,-0.0252,-0.0287,-0.0304,-0.0314,-0.032,-0.0346,-0.0337,-0.0335,-0.0336,-0.0367,-0.0368,-0.0368,-0.0359,-0.0359,-0.0359,0,0,-0.0142,-0.0146,-0.0134,-0.0139,-0.0146,-0.0156,-0.0154,-0.0162,-0.0172,-0.0181,-0.0211,-0.0234,-0.0262,-0.0291,-0.031,-0.0311,-0.0335,-0.0321,-0.0308,-0.0337,-0.0338,-0.0339,-0.0351,-0.0354,-0.0321,-0.0321,-0.0321,0,-0.0126,-0.0119,-0.0129,-0.0123,-0.0129,-0.0147,-0.0142,-0.015,-0.0164,-0.0175,-0.0181,-0.0234,-0.0259,-0.0294,-0.0296,-0.0307,-0.0322,-0.031,-0.0334,-0.0335,-0.0337,-0.035,-0.0353,-0.032,-0.032,-0.032,-0.032,0,-0.0096,-0.0095,-0.0086,-0.0094,-0.0097,-0.0092,-0.0112,-0.0118,-0.0135,-0.015,-0.0179,-0.0211,-0.0245,-0.0259,-0.0277,-0.0305,-0.0309,-0.0326,-0.0336,-0.0336,-0.0349,-0.0353,-0.0317,-0.0318,-0.0318,-0.0319,0,0,-0.0053,-0.0064,-0.0063,-0.0073,-0.0085,-0.0086,-0.0094,-0.0112,-0.0125,-0.0142,-0.0161,-0.0201,-0.0218,-0.0241,-0.0269,-0.0294,-0.0312,-0.031,-0.0312,-0.0316,-0.0365,-0.0337,-0.0339,-0.0332,-0.0333,-0.0334,-0.0366,0,-0.0032,-0.0026,-0.0035,-0.0037,-0.0041,-0.0064,-0.0074,-0.0093,-0.0113,-0.0133,-0.017,-0.0198,-0.0212,-0.0232,-0.0256,-0.0304,-0.0323,-0.0301,-0.0371,-0.0373,-0.0343,-0.0343,-0.0349,-0.0376,-0.037,-0.037,-0.0371,0,-0.0009,-0.0012,-0.0009,-0.0031,-0.0034,-0.0036,-0.0067,-0.0076,-0.0108,-0.0125,-0.0151,-0.0178,-0.0218,-0.023,-0.0297,-0.0282,-0.0317,-0.0349,-0.0352,-0.0342,-0.0352,-0.0379,-0.0383,-0.035,-0.0377,-0.0376,-0.0376,0,0.0001,0.0001,-0.0003,-0.0008,-0.0027,-0.0034,-0.0046,-0.0074,-0.0093,-0.012,-0.0137,-0.0177,-0.021,-0.0253,-0.0306,-0.0307,-0.0375,-0.039,-0.0395,-0.0393,-0.042,-0.0419,-0.0396,-0.0435,-0.0435,-0.0434,-0.0434,0,0.0012,0.0008,0.0001,-0.0003,-0.0013,-0.0025,-0.0041,-0.0059,-0.0087,-0.0114,-0.0132,-0.0166,-0.0219,-0.0261,-0.0302,-0.0351,-0.0373,-0.0389,-0.0401,-0.0406,-0.0403,-0.0393,-0.0376,-0.0436,-0.0435,-0.0435,-0.0435,0,0.0008,0.0009,0.0001,-0.0009,-0.0011,-0.0021,-0.0043,-0.006,-0.0078,-0.0114,-0.0125,-0.0168,-0.0219,-0.0259,-0.0336,-0.0351,-0.0388,-0.0413,-0.04,-0.0409,-0.0368,-0.035,-0.0325,-0.0354,-0.0422,-0.0421,-0.0421,0,0.0,-0.0002,-0.0006,-0.0014,-0.002,-0.0031,-0.0045,-0.006,-0.0082,-0.0125,-0.0149,-0.0191,-0.0237,-0.0306,-0.0347,-0.0394,-0.0383,-0.0409,-0.0411,-0.0358,-0.0347,-0.0313,-0.0338,-0.0436,-0.0435,-0.0435,-0.0435,0,-0.0026,-0.0023,-0.0034,-0.0046,-0.0054,-0.0063,-0.0081,-0.0095,-0.0122,-0.015,-0.0207,-0.0242,-0.0291,-0.0342,-0.0366,-0.0395,-0.0376,-0.0404,-0.0371,-0.0365,-0.0308,-0.0345,-0.0406,-0.0433,-0.0433,-0.0433,-0.0433,-0.0434,-0.0059,-0.0073,-0.0088,-0.0106,-0.0108,-0.0121,-0.0151,-0.0165,-0.0205,-0.027,-0.0265,-0.0323,-0.0332,-0.0375,-0.0395,-0.0371,-0.0376,-0.0363,-0.0348,-0.0319,-0.0329,-0.0363,-0.0386,-0.0386,-0.0386,-0.0386,-0.0386,0,-0.013,-0.0144,-0.0156,-0.0187,-0.0214,-0.0189,-0.0208,-0.0246,-0.0311,-0.0324,-0.0377,-0.0362,-0.0383,-0.0373,-0.0327,-0.0309,-0.034,-0.029,-0.026,-0.0298,-0.0354,-0.0336,-0.0323,-0.0323,-0.0323,-0.0323,-0.0323,-0.0323,-0.0174,-0.0216,-0.0223,-0.0299,-0.0315,-0.0366,-0.0386,-0.0408,-0.0424,-0.0431,-0.0416,-0.0402,-0.029,-0.0161,-0.0142,-0.0182,-0.0203,-0.0182,-0.02,-0.0236,-0.0242,-0.0248,-0.0226,-0.019,-0.019,-0.0167,-0.0166,-0.0166]}],[{"header":{"parameterUnit":"m.s-1","parameterCategory":2,"la1":30.2991,"la2":30.254,"lo1":-89.0895,"lo2":-89.0444,"dy":0.0017,"dx":0.0017,"nx":28,"ny":28,"refTime":"2024-07-11T03:00:00:Z","depth":"2","parameterNumber":2,"parameterNumberName":"U-component_of_CURRENTS"},"data":[0,0,0,0,0,0,0,0,0,0,0,0,0,0,0,0,0,0,0,0,0,0,0,0,0,0,0,0,0,0,0,0,0,0,0,0,0,0,0,0,0,0,0,0,0,0,0,0,0,0,0,0,0,0,0,0,0,0,-0.0085,-0.0085,0,-0.0067,-0.0067,-0.0067,-0.0068,-0.0068,-0.0068,-0.0068,-0.0093,-0.0093,-0.0093,0,0,0,0,0,0,0,0,0,0,0,0,0,-0.015,-0.0149,-0.0085,-0.0085,-0.0085,-0.0067,-0.0067,-0.0067,-0.0068,-0.0068,-0.0068,-0.0069,-0.0092,-0.0093,-0.0093,0,0,0,0,0,0,0,0,0,0,0,0,0,-0.0126,-0.0148,-0.0085,-0.0083,-0.0082,-0.0067,-0.0067,-0.0067,-0.0068,-0.0068,-0.0068,-0.0069,-0.0092,-0.0093,-0.0094,-0.0091,0,0,-0.0096,-0.0096,0,0,0,0,0,0,0,0,-0.0128,-0.0124,-0.0083,-0.0083,-0.0082,-0.007,-0.0099,-0.0077,-0.0068,-0.0073,-0.0068,-0.0069,-0.0089,-0.0089,-0.0085,-0.0092,-0.0093,-0.0096,-0.0096,-0.0096,-0.0096,0,0,0,0,0,0,0,-0.0129,-0.0125,-0.0078,-0.0083,-0.0083,-0.0093,-0.009,-0.0095,-0.008,-0.0073,-0.0073,-0.007,-0.0089,-0.0084,-0.0086,-0.0093,-0.0096,-0.0096,-0.0097,-0.0097,-0.0144,-0.0145,0,0,0,0,0,0,-0.0129,-0.0126,-0.0079,-0.0078,-0.0106,-0.0091,-0.0088,-0.0074,-0.0079,-0.008,-0.007,-0.0071,-0.0083,-0.0085,-0.0087,-0.0126,-0.0096,-0.0097,-0.0097,-0.0143,-0.0144,-0.0145,0,0,0,0,0,0,-0.013,-0.0124,-0.008,-0.0102,-0.0097,-0.009,-0.0074,-0.0073,-0.008,-0.0077,-0.0078,-0.008,-0.0083,-0.0086,-0.0103,-0.0125,-0.0097,-0.0098,-0.0142,-0.0143,-0.0145,-0.0177,0,0,0,0,0,0,-0.0132,-0.0124,-0.0123,-0.0102,-0.0096,-0.008,-0.0074,-0.0073,-0.0077,-0.0078,-0.0085,-0.0087,-0.0084,-0.0102,-0.0104,-0.0126,-0.0098,-0.0141,-0.0143,-0.0144,-0.0175,-0.0179,-0.0183,0,0,0,0,0,-0.0134,-0.013,-0.0122,-0.0117,-0.009,-0.0081,-0.0079,-0.0075,-0.0078,-0.0083,-0.009,-0.0087,-0.0114,-0.0103,-0.0105,-0.0127,-0.014,-0.0142,-0.0144,-0.0173,-0.0178,-0.0183,0,0,0,0,0,0,-0.0167,-0.0129,-0.012,-0.0107,-0.0099,-0.0081,-0.0089,-0.0083,-0.009,-0.0099,-0.0094,-0.0097,-0.012,-0.0119,-0.0107,-0.0146,-0.0129,-0.0131,-0.015,-0.0155,-0.0159,-0.0171,-0.0099,0,0,0,0,0,-0.017,-0.0153,-0.0127,-0.0122,-0.0118,-0.0105,-0.0104,-0.0101,-0.01,-0.0104,-0.0108,-0.0118,-0.0126,-0.0137,-0.0143,-0.0164,-0.0167,-0.0181,-0.0185,-0.0188,-0.0199,-0.0209,-0.0215,-0.0152,-0.0152,-0.0152,0,0,-0.0183,-0.0161,-0.0153,-0.0127,-0.0123,-0.0124,-0.0106,-0.0111,-0.0121,-0.0106,-0.0132,-0.0131,-0.0134,-0.0156,-0.0167,-0.0161,-0.0211,-0.0191,-0.0194,-0.0203,-0.0212,-0.0218,-0.0223,-0.0153,-0.0153,-0.0152,0,0,-0.0203,-0.0182,-0.0176,-0.0169,-0.0159,-0.0151,-0.0154,-0.0144,-0.015,-0.0166,-0.016,-0.0171,-0.0188,-0.0192,-0.0196,-0.0227,-0.0228,-0.0234,-0.0269,-0.0278,-0.0283,-0.0288,-0.0312,-0.0318,-0.024,-0.024,-0.024,0,-0.0228,-0.0206,-0.0179,-0.0178,-0.018,-0.0165,-0.0174,-0.0177,-0.0177,-0.0187,-0.0185,-0.0206,-0.0206,-0.0228,-0.0242,-0.0237,-0.0248,-0.0248,-0.0283,-0.0288,-0.0292,-0.0315,-0.0322,-0.0242,-0.0242,-0.0242,-0.0242,0,-0.0238,-0.0229,-0.0232,-0.0219,-0.0222,-0.0228,-0.0223,-0.0236,-0.0243,-0.0242,-0.0266,-0.0262,-0.0277,-0.0278,-0.0273,-0.0304,-0.0305,-0.0282,-0.027,-0.03,-0.0323,-0.0329,-0.0245,-0.0244,-0.0243,-0.0243,0,0,-0.0271,-0.0242,-0.0247,-0.0243,-0.0243,-0.0243,-0.0272,-0.0282,-0.0301,-0.0309,-0.0333,-0.0344,-0.034,-0.0345,-0.0336,-0.0346,-0.0385,-0.0336,-0.0336,-0.0359,-0.0424,-0.0449,-0.0458,-0.0369,-0.037,-0.0371,-0.0432,0,-0.0292,-0.0287,-0.0275,-0.0291,-0.0287,-0.0291,-0.0316,-0.0329,-0.0343,-0.0363,-0.0364,-0.0382,-0.0366,-0.0377,-0.0386,-0.0379,-0.0403,-0.0372,-0.0392,-0.0394,-0.041,-0.0466,-0.0375,-0.0424,-0.0438,-0.0439,-0.044,0,-0.0305,-0.0296,-0.0306,-0.0306,-0.031,-0.0329,-0.0362,-0.0381,-0.0408,-0.042,-0.044,-0.0437,-0.046,-0.0436,-0.046,-0.0443,-0.0449,-0.0443,-0.0444,-0.0461,-0.043,-0.0394,-0.0435,-0.0451,-0.045,-0.0449,-0.0448,0,-0.0317,-0.0319,-0.0324,-0.0325,-0.033,-0.0355,-0.0373,-0.0404,-0.0426,-0.046,-0.0483,-0.0496,-0.0517,-0.0515,-0.0515,-0.0493,-0.0539,-0.05,-0.0532,-0.0533,-0.0458,-0.0452,-0.053,-0.053,-0.053,-0.053,-0.053,0,-0.0325,-0.0328,-0.0331,-0.0331,-0.0353,-0.0367,-0.0405,-0.0426,-0.0469,-0.0509,-0.0515,-0.0552,-0.0539,-0.056,-0.0545,-0.0573,-0.0567,-0.0562,-0.0557,-0.047,-0.0464,-0.048,-0.0473,-0.0532,-0.0532,-0.0531,-0.0531,0,-0.0317,-0.032,-0.0321,-0.034,-0.0351,-0.0369,-0.0416,-0.0447,-0.049,-0.0548,-0.0566,-0.0607,-0.0649,-0.0637,-0.0646,-0.0627,-0.063,-0.0641,-0.0553,-0.0539,-0.0612,-0.0606,-0.0687,-0.0688,-0.0689,-0.069,-0.0691,0,-0.0297,-0.0297,-0.0321,-0.0332,-0.0342,-0.0373,-0.0405,-0.0452,-0.0495,-0.0588,-0.0623,-0.0685,-0.0745,-0.0768,-0.0734,-0.073,-0.0702,-0.0636,-0.0578,-0.0644,-0.0631,-0.0623,-0.0616,-0.049,-0.049,-0.0489,-0.0488,0,-0.0253,-0.0273,-0.0276,-0.0309,-0.0342,-0.0384,-0.0441,-0.048,-0.0562,-0.0634,-0.0751,-0.081,-0.084,-0.0789,-0.0766,-0.0744,-0.0624,-0.0626,-0.0712,-0.0474,-0.0466,-0.0451,-0.0449,-0.0482,-0.0483,-0.0483,-0.0484,-0.0484,-0.0211,-0.0211,-0.0234,-0.0263,-0.0319,-0.0405,-0.0428,-0.0522,-0.0618,-0.0716,-0.0804,-0.0832,-0.0777,-0.0713,-0.0687,-0.0635,-0.0684,-0.0584,-0.0582,-0.0582,-0.0557,-0.0553,-0.0582,-0.0583,-0.0584,-0.0585,-0.0586,0,-0.0126,-0.0154,-0.0184,-0.0228,-0.0285,-0.0348,-0.0448,-0.0467,-0.0578,-0.0691,-0.0788,-0.0675,-0.065,-0.0583,-0.0504,-0.051,-0.0481,-0.0467,-0.038,-0.0386,-0.0392,-0.0354,-0.0327,-0.0326,-0.0326,-0.0325,0,0,-0.0076,-0.0074,-0.0101,-0.0165,-0.023,-0.0298,-0.0355,-0.0417,-0.0471,-0.0551,-0.0557,-0.063,-0.0574,-0.0432,-0.0412,-0.0349,-0.0375,-0.0346,-0.0551,-0.0455,-0.046,-0.0455,-0.0405,0,0,0,0,0]},{"header":{"parameterUnit":"m.s-1","parameterCategory":2,"la1":30.2991,"la2":30.254,"lo1":-89.0895,"lo2":-89.0444,"dy":0.0017,"dx":0.0017,"nx":28,"ny":28,"refTime":"2024-07-11T03:00:00:Z","depth":"2","parameterNumber":3,"parameterNumberName":"V-component_of_CURRENTS"},"data":[0,0,0,0,0,0,0,0,0,0,0,0,0,0,0,0,0,0,0,0,0,0,0,0,0,0,0,0,0,0,0,0,0,0,0,0,0,0,0,0,0,0,0,0,0,0,0,0,0,0,0,0,0,0,0,0,0,0,0.0051,0.0051,0,0.0062,0.0062,0.0062,0.0071,0.0071,0.0071,0.0071,0.008,0.0081,0.0081,0,0,0,0,0,0,0,0,0,0,0,0,0,0.0053,0.0053,0.0051,0.0051,0.0051,0.0062,0.0062,0.0062,0.0071,0.0071,0.0071,0.0071,0.008,0.0081,0.0081,0,0,0,0,0,0,0,0,0,0,0,0,0,0.0057,0.0053,0.0051,0.0056,0.0057,0.0062,0.0062,0.0062,0.0071,0.0071,0.0071,0.0071,0.008,0.0081,0.0081,0.0082,0,0,0.0082,0.0082,0,0,0,0,0,0,0,0,0.0057,0.0057,0.0056,0.0056,0.0057,0.0064,0.0066,0.0069,0.0071,0.0066,0.0071,0.0071,0.0075,0.0075,0.0078,0.0083,0.0083,0.0082,0.0082,0.0082,0.0083,0,0,0,0,0,0,0,0.0057,0.0057,0.0056,0.0056,0.0056,0.0063,0.0064,0.0067,0.007,0.0066,0.0067,0.0067,0.0075,0.0078,0.0079,0.0083,0.0082,0.0082,0.0083,0.0083,0.0081,0.008,0,0,0,0,0,0,0.0053,0.0057,0.0056,0.0056,0.0056,0.0063,0.0064,0.0062,0.007,0.0072,0.0067,0.0067,0.0077,0.0078,0.0079,0.0077,0.0082,0.0083,0.0083,0.0081,0.0081,0.008,0,0,0,0,0,0,0.0053,0.0053,0.0055,0.0056,0.0057,0.0063,0.0061,0.0063,0.0065,0.0071,0.0072,0.0068,0.0077,0.0078,0.0077,0.0077,0.0083,0.0083,0.0081,0.0081,0.008,0.0075,0,0,0,0,0,0,0.0053,0.0053,0.0052,0.0056,0.0057,0.0057,0.0061,0.0063,0.0065,0.0066,0.0072,0.0073,0.0077,0.0076,0.0077,0.0078,0.0084,0.0082,0.0081,0.0081,0.0075,0.0074,0.0074,0,0,0,0,0,0.0053,0.0051,0.0052,0.0052,0.0055,0.0057,0.0058,0.0063,0.0065,0.0066,0.0067,0.0073,0.0074,0.0076,0.0077,0.0078,0.0082,0.0081,0.0081,0.0076,0.0075,0.0074,0,0,0,0,0,0,0.0054,0.0052,0.0053,0.0051,0.0053,0.0058,0.006,0.0062,0.0064,0.0065,0.0069,0.007,0.0069,0.0072,0.0075,0.0075,0.0079,0.0079,0.0075,0.0074,0.0073,0.0081,0.0084,0,0,0,0,0,0.0053,0.0049,0.0051,0.005,0.0051,0.0055,0.0057,0.006,0.0061,0.0063,0.0068,0.0069,0.0068,0.0069,0.007,0.0071,0.0081,0.0072,0.0071,0.007,0.0077,0.0085,0.0086,0.0078,0.0078,0.0078,0,0,0.0052,0.0051,0.0049,0.0049,0.0052,0.0051,0.0057,0.0059,0.0057,0.0063,0.0065,0.0066,0.0066,0.0066,0.0066,0.0069,0.0078,0.0069,0.0069,0.0077,0.0085,0.0085,0.0086,0.0078,0.0078,0.0078,0,0,0.0046,0.0049,0.0042,0.0044,0.0047,0.005,0.0049,0.0055,0.0057,0.0058,0.0058,0.0059,0.0063,0.0062,0.0061,0.0054,0.0071,0.0056,0.0061,0.0068,0.0069,0.007,0.0086,0.0088,0.0057,0.0057,0.0057,0,0.0043,0.0037,0.0042,0.0038,0.0038,0.0047,0.0042,0.0047,0.0051,0.0052,0.0058,0.0062,0.0061,0.0056,0.0056,0.0053,0.0065,0.0065,0.0067,0.0068,0.007,0.0086,0.0089,0.0057,0.0057,0.0057,0.0057,0,0.0031,0.0029,0.0027,0.0024,0.0027,0.0025,0.003,0.0035,0.0042,0.0046,0.0049,0.0053,0.0058,0.0055,0.0056,0.006,0.007,0.0064,0.0072,0.007,0.0087,0.009,0.0056,0.0056,0.0056,0.0056,0,0,0.001,0.0016,0.0013,0.0011,0.0018,0.0017,0.002,0.0021,0.0023,0.0036,0.0039,0.0041,0.0054,0.0054,0.0056,0.0064,0.008,0.0072,0.0072,0.0092,0.0108,0.0093,0.0095,0.0078,0.0079,0.0079,0.0118,0,-0.0005,-0.0016,-0.0007,-0.0015,-0.0019,-0.0004,-0.0003,0.0004,0.0014,0.0023,0.0033,0.004,0.0049,0.0056,0.0066,0.0075,0.0088,0.0071,0.0105,0.0106,0.0095,0.0097,0.0108,0.0142,0.0121,0.0122,0.0122,0,-0.0029,-0.0031,-0.0043,-0.0035,-0.0036,-0.0034,-0.0027,-0.0022,-0.0005,0.0005,0.0023,0.0037,0.0055,0.0062,0.0093,0.0085,0.0101,0.011,0.0111,0.0103,0.0095,0.014,0.0148,0.0127,0.0127,0.0126,0.0126,0,-0.0061,-0.0059,-0.007,-0.0069,-0.0057,-0.0054,-0.0044,-0.0029,-0.0028,-0.0,0.0007,0.0036,0.0049,0.0078,0.0104,0.0104,0.0136,0.0135,0.0138,0.0137,0.0156,0.0156,0.0158,0.0158,0.0158,0.0158,0.0158,0,-0.009,-0.0097,-0.0083,-0.0091,-0.0095,-0.0074,-0.0073,-0.0059,-0.0041,-0.0043,-0.0,0.0005,0.0055,0.0079,0.0107,0.0133,0.0141,0.0144,0.0145,0.0154,0.0153,0.0146,0.0144,0.0159,0.0159,0.0159,0.0158,0,-0.0126,-0.012,-0.013,-0.0118,-0.0113,-0.0114,-0.0093,-0.0094,-0.0067,-0.0066,-0.0056,-0.0016,0.0022,0.0066,0.0109,0.0128,0.0156,0.0161,0.0172,0.0172,0.0157,0.0154,0.018,0.018,0.018,0.0179,0.0179,0,-0.0138,-0.0152,-0.0155,-0.016,-0.0153,-0.0145,-0.0142,-0.0114,-0.0118,-0.0087,-0.0097,-0.0049,-0.002,0.0048,0.0107,0.0165,0.0148,0.0181,0.0177,0.0161,0.0159,0.0156,0.0154,0.0207,0.0207,0.0207,0.0207,0,-0.0159,-0.0171,-0.0183,-0.02,-0.0202,-0.0207,-0.02,-0.0211,-0.0184,-0.0168,-0.0152,-0.0116,-0.0023,0.0058,0.0133,0.0156,0.0176,0.0183,0.017,0.0188,0.0186,0.0184,0.0181,0.0208,0.0208,0.0208,0.0208,0.0208,-0.0167,-0.0193,-0.0219,-0.0236,-0.0252,-0.028,-0.0298,-0.0291,-0.0296,-0.0282,-0.0206,-0.0148,-0.004,0.0066,0.0144,0.0199,0.019,0.0192,0.0193,0.0193,0.0177,0.0173,0.0191,0.0191,0.0191,0.0191,0.0191,0,-0.015,-0.0204,-0.0241,-0.0285,-0.0331,-0.0318,-0.0349,-0.0375,-0.0394,-0.0329,-0.0274,-0.0148,-0.0039,0.0052,0.017,0.0239,0.0246,0.0219,0.0234,0.0232,0.0231,0.0218,0.0243,0.0243,0.0244,0.0244,0,0,-0.0141,-0.0189,-0.0231,-0.0335,-0.0379,-0.0445,-0.0469,-0.0495,-0.0474,-0.04,-0.0326,-0.0224,-0.0074,0.0009,0.0125,0.0191,0.0179,0.018,0.0132,0.0135,0.0133,0.0211,0.0188,0,0,0,0,0]}],[{"header":{"parameterUnit":"m.s-1","parameterCategory":2,"la1":30.2991,"la2":30.254,"lo1":-89.0895,"lo2":-89.0444,"dy":0.0017,"dx":0.0017,"nx":28,"ny":28,"refTime":"2024-07-11T03:00:00:Z","depth":"4","parameterNumber":2,"parameterNumberName":"U-component_of_CURRENTS"},"data":[0,0,0,0,0,0,0,0,0,0,0,0,0,0,0,0,0,0,0,0,0,0,0,0,0,0,0,0,0,0,0,0,0,0,0,0,0,0,0,0,0,0,0,0,0,0,0,0,0,0,0,0,0,0,0,0,0,0,-0.0438,-0.0439,0,-0.047,-0.0471,-0.0471,-0.0512,-0.0513,-0.0513,-0.0514,-0.059,-0.0592,-0.0593,0,0,0,0,0,0,0,0,0,0,0,0,0,-0.0391,-0.0392,-0.0438,-0.0439,-0.0439,-0.047,-0.0471,-0.0471,-0.0512,-0.0513,-0.0513,-0.0514,-0.059,-0.0592,-0.0593,0,0,0,0,0,0,0,0,0,0,0,0,0,-0.0417,-0.0392,-0.0438,-0.0463,-0.0465,-0.047,-0.0471,-0.0471,-0.0512,-0.0513,-0.0514,-0.0514,-0.0589,-0.0591,-0.0594,-0.0588,0,0,-0.06,-0.0601,0,0,0,0,0,0,0,0,-0.0415,-0.0418,-0.0459,-0.0461,-0.0464,-0.0488,-0.0482,-0.0512,-0.0511,-0.0494,-0.0514,-0.0515,-0.0559,-0.0564,-0.0568,-0.0592,-0.0595,-0.06,-0.0602,-0.0603,-0.0603,0,0,0,0,0,0,0,-0.0413,-0.0417,-0.0451,-0.0459,-0.0462,-0.0465,-0.047,-0.0488,-0.0522,-0.0496,-0.0499,-0.0502,-0.0561,-0.0565,-0.057,-0.0596,-0.06,-0.0602,-0.0604,-0.0604,-0.0726,-0.0728,0,0,0,0,0,0,-0.0409,-0.0415,-0.045,-0.0452,-0.0441,-0.0465,-0.0471,-0.0479,-0.0521,-0.0528,-0.0501,-0.0503,-0.0561,-0.0567,-0.0573,-0.0678,-0.0603,-0.0605,-0.0606,-0.0724,-0.0726,-0.0728,0,0,0,0,0,0,-0.0408,-0.0412,-0.0449,-0.0434,-0.0439,-0.0465,-0.0475,-0.048,-0.0505,-0.0524,-0.0532,-0.0523,-0.0562,-0.057,-0.062,-0.0677,-0.0606,-0.0608,-0.0722,-0.0725,-0.0727,-0.0818,0,0,0,0,0,0,-0.0406,-0.0411,-0.0418,-0.0434,-0.044,-0.0465,-0.0474,-0.0479,-0.0503,-0.0508,-0.0546,-0.0552,-0.0564,-0.0617,-0.0622,-0.0679,-0.0609,-0.0719,-0.0723,-0.0726,-0.0813,-0.0824,-0.0833,0,0,0,0,0,-0.0405,-0.0414,-0.0418,-0.0423,-0.0448,-0.0465,-0.0469,-0.049,-0.0504,-0.0516,-0.0554,-0.0552,-0.0644,-0.062,-0.0626,-0.0685,-0.0718,-0.0722,-0.0726,-0.0808,-0.0822,-0.0833,0,0,0,0,0,0,-0.0392,-0.0419,-0.0425,-0.044,-0.0455,-0.0472,-0.0483,-0.0499,-0.0536,-0.0559,-0.057,-0.058,-0.0656,-0.0646,-0.0619,-0.0729,-0.0683,-0.0688,-0.0743,-0.0756,-0.0766,-0.0713,-0.0611,0,0,0,0,0,-0.0392,-0.0408,-0.0428,-0.0438,-0.0448,-0.0468,-0.0479,-0.0508,-0.0538,-0.0556,-0.0592,-0.0631,-0.0673,-0.0694,-0.0733,-0.0776,-0.0743,-0.0819,-0.0829,-0.0838,-0.0799,-0.0814,-0.0821,-0.0743,-0.0743,-0.0742,0,0,-0.0386,-0.0404,-0.0411,-0.0437,-0.045,-0.0476,-0.0478,-0.0517,-0.0559,-0.0559,-0.0638,-0.0677,-0.0695,-0.0766,-0.0797,-0.0766,-0.0849,-0.0843,-0.0851,-0.0806,-0.0819,-0.0826,-0.0833,-0.0745,-0.0745,-0.0744,0,0,-0.0383,-0.0403,-0.0416,-0.0434,-0.0471,-0.0497,-0.0512,-0.0562,-0.0604,-0.067,-0.07,-0.0762,-0.0815,-0.0852,-0.0868,-0.0948,-0.0912,-0.0971,-0.0972,-0.099,-0.0995,-0.1,-0.0987,-0.099,-0.0966,-0.0966,-0.0966,0,-0.0372,-0.0396,-0.042,-0.0439,-0.0458,-0.0508,-0.0534,-0.0583,-0.0655,-0.0693,-0.071,-0.0817,-0.0853,-0.0917,-0.0949,-0.0974,-0.0951,-0.0929,-0.1001,-0.1005,-0.1008,-0.0993,-0.0995,-0.0971,-0.097,-0.097,-0.0969,0,-0.0381,-0.0402,-0.0412,-0.0457,-0.0485,-0.0521,-0.0587,-0.0658,-0.0721,-0.0763,-0.0861,-0.0912,-0.095,-0.1005,-0.0994,-0.1048,-0.1017,-0.1024,-0.0966,-0.1021,-0.1003,-0.1003,-0.0978,-0.0976,-0.0974,-0.0973,0,0,-0.0345,-0.0405,-0.0408,-0.0427,-0.0505,-0.0526,-0.0624,-0.0702,-0.0762,-0.0852,-0.0903,-0.1,-0.1009,-0.1023,-0.1051,-0.1069,-0.11,-0.104,-0.1038,-0.1017,-0.1103,-0.0965,-0.0951,-0.1115,-0.1115,-0.1115,-0.1088,0,-0.034,-0.0375,-0.0416,-0.0458,-0.0482,-0.0565,-0.0642,-0.0733,-0.0813,-0.0887,-0.0955,-0.1006,-0.1021,-0.1037,-0.1065,-0.1091,-0.1098,-0.1103,-0.1057,-0.1055,-0.0918,-0.0946,-0.1116,-0.1088,-0.1088,-0.1088,-0.1088,0,-0.0331,-0.036,-0.0396,-0.047,-0.0488,-0.0528,-0.0651,-0.0729,-0.085,-0.0903,-0.0958,-0.0989,-0.103,-0.1033,-0.1073,-0.1068,-0.1067,-0.1089,-0.1089,-0.091,-0.0914,-0.1017,-0.1086,-0.1087,-0.1087,-0.1087,-0.1087,0,-0.0288,-0.0343,-0.0372,-0.0392,-0.049,-0.0533,-0.0602,-0.0732,-0.0796,-0.0883,-0.0912,-0.0973,-0.0988,-0.1012,-0.1026,-0.1044,-0.1052,-0.1095,-0.0972,-0.0963,-0.1056,-0.1051,-0.1101,-0.1101,-0.1101,-0.1101,-0.1101,0,-0.0268,-0.0281,-0.0348,-0.0359,-0.041,-0.0495,-0.0565,-0.0655,-0.076,-0.0797,-0.0885,-0.0881,-0.0977,-0.0991,-0.101,-0.096,-0.1033,-0.0943,-0.0939,-0.1099,-0.1099,-0.1057,-0.1052,-0.11,-0.11,-0.11,-0.11,0,-0.0205,-0.0254,-0.0276,-0.0359,-0.0384,-0.0418,-0.0514,-0.0569,-0.0676,-0.072,-0.0727,-0.0809,-0.0792,-0.0872,-0.0907,-0.0914,-0.0907,-0.0871,-0.1001,-0.101,-0.0814,-0.0815,-0.0738,-0.0733,-0.0728,-0.0725,-0.0721,0,-0.0176,-0.0182,-0.0242,-0.0259,-0.0286,-0.0343,-0.0394,-0.0509,-0.0544,-0.0637,-0.063,-0.0647,-0.0676,-0.0646,-0.071,-0.0734,-0.0737,-0.0754,-0.0808,-0.0769,-0.0774,-0.0782,-0.0789,-0.0714,-0.0713,-0.0712,-0.0711,0,-0.0109,-0.0128,-0.0148,-0.0186,-0.0215,-0.0251,-0.0308,-0.0323,-0.0441,-0.0514,-0.0514,-0.0528,-0.0506,-0.0535,-0.0553,-0.0573,-0.0765,-0.0708,-0.0719,-0.077,-0.0739,-0.0751,-0.0763,-0.0695,-0.0697,-0.0699,-0.07,0,-0.0047,-0.0047,-0.0083,-0.0115,-0.0142,-0.0167,-0.0208,-0.0241,-0.0296,-0.041,-0.0363,-0.0409,-0.0451,-0.044,-0.0439,-0.0457,-0.0472,-0.0524,-0.0545,-0.0563,-0.0518,-0.0455,-0.0293,0,0,0,0,0,0.0006,-0.0007,-0.0021,-0.0059,-0.0078,-0.0108,-0.0162,-0.021,-0.0284,-0.0268,-0.0338,-0.0304,-0.0313,-0.0318,-0.0302,-0.0341,-0.0467,-0.0321,-0.0536,-0.0609,-0.0627,-0.0591,0,0,0,0,0,0,0.0029,0.0025,-0.0002,-0.0002,-0.0019,-0.0046,-0.0084,-0.0141,-0.0144,-0.0217,-0.0213,-0.0276,-0.0272,-0.0306,-0.0288,-0.0294,-0.0424,-0.0345,-0.0344,-0.0599,-0.0615,-0.0629,-0.0599,0,0,0,0,0]},{"header":{"parameterUnit":"m.s-1","parameterCategory":2,"la1":30.2991,"la2":30.254,"lo1":-89.0895,"lo2":-89.0444,"dy":0.0017,"dx":0.0017,"nx":28,"ny":28,"refTime":"2024-07-11T03:00:00:Z","depth":"4","parameterNumber":3,"parameterNumberName":"V-component_of_CURRENTS"},"data":[0,0,0,0,0,0,0,0,0,0,0,0,0,0,0,0,0,0,0,0,0,0,0,0,0,0,0,0,0,0,0,0,0,0,0,0,0,0,0,0,0,0,0,0,0,0,0,0,0,0,0,0,0,0,0,0,0,0,-0.0009,-0.0009,0,-0.0031,-0.0032,-0.0032,-0.0018,-0.0017,-0.0016,-0.0015,-0.003,-0.0031,-0.0032,0,0,0,0,0,0,0,0,0,0,0,0,0,0.0029,0.0028,-0.0009,-0.0009,-0.001,-0.0031,-0.0032,-0.0032,-0.0018,-0.0017,-0.0016,-0.0015,-0.0029,-0.0031,-0.0032,0,0,0,0,0,0,0,0,0,0,0,0,0,0.0009,0.0028,-0.0009,-0.0004,-0.0003,-0.0031,-0.0032,-0.0032,-0.0018,-0.0017,-0.0015,-0.0014,-0.0029,-0.003,-0.0032,-0.0067,0,0,-0.0037,-0.0038,0,0,0,0,0,0,0,0,0.001,0.0007,-0.0004,-0.0004,-0.0004,-0.0019,-0.0023,-0.0043,-0.0018,-0.0014,-0.0015,-0.0014,-0.0025,-0.0027,-0.0036,-0.0068,-0.0068,-0.0037,-0.0038,-0.0039,-0.004,0,0,0,0,0,0,0,0.0011,0.0008,-0.002,-0.0005,-0.0004,-0.0006,-0.0007,-0.0027,-0.0027,-0.0014,-0.0013,-0.0013,-0.0025,-0.0035,-0.0037,-0.0069,-0.0037,-0.0039,-0.004,-0.0041,-0.0106,-0.0107,0,0,0,0,0,0,0.0016,0.0009,-0.0019,-0.002,0.0008,-0.0007,-0.0009,-0.0017,-0.0027,-0.0027,-0.0014,-0.0012,-0.0032,-0.0035,-0.0037,-0.0034,-0.0039,-0.0041,-0.0042,-0.0105,-0.0106,-0.0107,0,0,0,0,0,0,0.0017,0.0014,-0.0018,-0.0004,-0.0008,-0.0009,-0.0018,-0.0018,-0.002,-0.0027,-0.0027,-0.0015,-0.0032,-0.0035,-0.0056,-0.0036,-0.0042,-0.0043,-0.0105,-0.0106,-0.0107,-0.0057,0,0,0,0,0,0,0.0018,0.0014,0.0009,-0.0004,-0.0008,-0.0034,-0.0019,-0.0019,-0.0021,-0.0019,-0.0028,-0.0028,-0.0031,-0.0054,-0.0058,-0.0038,-0.0044,-0.0104,-0.0105,-0.0106,-0.0057,-0.0056,-0.0054,0,0,0,0,0,0.0019,0.0005,0.0009,0.0005,-0.0015,-0.0035,-0.0038,-0.0035,-0.0023,-0.0031,-0.0037,-0.0028,-0.0064,-0.0056,-0.0061,-0.0041,-0.0103,-0.0105,-0.0106,-0.0058,-0.0056,-0.0054,0,0,0,0,0,0,0.002,0.0005,0.0009,-0.0009,-0.0019,-0.0032,-0.0038,-0.0036,-0.0048,-0.004,-0.0045,-0.0047,-0.0055,-0.007,-0.006,-0.0068,-0.008,-0.0082,-0.0041,-0.004,-0.0038,-0.0045,-0.0046,0,0,0,0,0,0.0017,0.0004,-0.0008,-0.0021,-0.0026,-0.0031,-0.0037,-0.0034,-0.0045,-0.0048,-0.005,-0.0058,-0.007,-0.0071,-0.0088,-0.0098,-0.0113,-0.0089,-0.0088,-0.0086,-0.0098,-0.0092,-0.009,-0.0112,-0.0112,-0.0112,0,0,0.0015,0.0006,-0.0001,-0.0021,-0.0026,-0.0047,-0.0032,-0.004,-0.0054,-0.005,-0.0063,-0.0057,-0.0076,-0.008,-0.0084,-0.0085,-0.0092,-0.0088,-0.0086,-0.01,-0.0093,-0.0091,-0.0088,-0.0113,-0.0113,-0.0113,0,0,0.0001,-0.0004,-0.002,-0.0033,-0.0042,-0.0052,-0.0053,-0.0061,-0.0059,-0.0072,-0.0067,-0.0059,-0.0077,-0.0079,-0.0085,-0.0095,-0.0089,-0.0086,-0.0075,-0.0067,-0.0065,-0.0063,-0.0089,-0.0089,-0.0079,-0.0079,-0.0079,0,0.0003,-0.0022,-0.0028,-0.0048,-0.0059,-0.0055,-0.0076,-0.0085,-0.0094,-0.0095,-0.0072,-0.008,-0.008,-0.0091,-0.0078,-0.0088,-0.009,-0.0071,-0.0062,-0.0061,-0.0059,-0.0086,-0.0088,-0.0076,-0.0077,-0.0077,-0.0077,0,-0.0025,-0.0044,-0.0054,-0.0081,-0.0098,-0.0112,-0.0124,-0.013,-0.0115,-0.0113,-0.0106,-0.0095,-0.0095,-0.0081,-0.0076,-0.0063,-0.0071,-0.006,-0.0057,-0.0053,-0.0083,-0.0085,-0.0073,-0.0074,-0.0075,-0.0075,0,0,-0.0018,-0.0065,-0.0066,-0.0084,-0.0113,-0.0129,-0.0154,-0.0173,-0.0182,-0.0157,-0.0159,-0.0138,-0.0103,-0.0109,-0.0086,-0.0065,-0.0045,-0.0044,-0.0044,-0.0055,-0.0042,-0.0038,-0.004,-0.001,-0.001,-0.001,-0.0069,0,-0.0032,-0.0075,-0.0097,-0.0138,-0.016,-0.0174,-0.0203,-0.0215,-0.0209,-0.021,-0.0176,-0.0167,-0.0124,-0.0097,-0.007,-0.0054,-0.0046,-0.0032,-0.0059,-0.0061,-0.0044,-0.0041,-0.001,-0.0071,-0.0071,-0.0072,-0.0072,0,-0.0045,-0.0075,-0.0115,-0.0166,-0.0177,-0.0202,-0.0235,-0.0256,-0.0265,-0.0249,-0.0221,-0.0197,-0.0166,-0.0122,-0.0093,-0.0076,-0.0059,-0.0045,-0.0046,-0.0064,-0.006,-0.0077,-0.0076,-0.0076,-0.0075,-0.0075,-0.0075,0,-0.0027,-0.0084,-0.0115,-0.0132,-0.0191,-0.0209,-0.0235,-0.0259,-0.0278,-0.0263,-0.0259,-0.0224,-0.02,-0.0162,-0.0123,-0.0096,-0.0104,-0.0073,-0.0072,-0.0073,-0.008,-0.0082,-0.0068,-0.0068,-0.0068,-0.0068,-0.0068,0,-0.0032,-0.0053,-0.0109,-0.0125,-0.0168,-0.0203,-0.0238,-0.0253,-0.0278,-0.0298,-0.0264,-0.0262,-0.0198,-0.0192,-0.0151,-0.0125,-0.0131,-0.0081,-0.0082,-0.0062,-0.0061,-0.0082,-0.0083,-0.007,-0.007,-0.0069,-0.0069,0,-0.0006,-0.004,-0.0081,-0.0142,-0.016,-0.0185,-0.0247,-0.0273,-0.0288,-0.0311,-0.0302,-0.0293,-0.0267,-0.0241,-0.0202,-0.0169,-0.0145,-0.0143,-0.016,-0.016,-0.0117,-0.0115,-0.0139,-0.0139,-0.014,-0.014,-0.014,0,-0.0,-0.0017,-0.0081,-0.0111,-0.0139,-0.0184,-0.0219,-0.026,-0.0286,-0.0327,-0.0335,-0.0331,-0.0313,-0.0281,-0.0235,-0.0198,-0.0177,-0.0183,-0.0107,-0.0123,-0.0121,-0.0119,-0.0117,-0.014,-0.014,-0.014,-0.014,0,0.0009,-0.0008,-0.0046,-0.0102,-0.0144,-0.0202,-0.0248,-0.0269,-0.0315,-0.0333,-0.0351,-0.0334,-0.0324,-0.0275,-0.0261,-0.0223,-0.0179,-0.0184,-0.0182,-0.0111,-0.0124,-0.0122,-0.0119,-0.0141,-0.0141,-0.0141,-0.0141,0,0.002,-0.0004,-0.0051,-0.0103,-0.0159,-0.0214,-0.0239,-0.0281,-0.0314,-0.0351,-0.0356,-0.0346,-0.0339,-0.0291,-0.0274,-0.0241,-0.0206,-0.0177,-0.0174,-0.0173,-0.0147,-0.0167,-0.0203,0,0,0,0,0,0.0022,-0.0007,-0.0054,-0.0117,-0.0171,-0.0205,-0.0266,-0.029,-0.0325,-0.0333,-0.0348,-0.0333,-0.03,-0.0289,-0.0252,-0.0261,-0.0201,-0.0216,-0.0165,-0.0144,-0.0144,-0.0103,0,0,0,0,0,0,0.0019,-0.0017,-0.005,-0.012,-0.0159,-0.0222,-0.0264,-0.0288,-0.0294,-0.0317,-0.0297,-0.0304,-0.0268,-0.0309,-0.024,-0.0234,-0.0193,-0.0205,-0.0204,-0.0145,-0.0144,-0.0143,-0.0102,0,0,0,0,0]}]]